FW7361 Weather Reports


time (UTC)temp
C
wind
direction
speed
KPH
gust
KPH
rain 1hr
cm
rain 24hr
cm
rain mn
cm
humidity
%
barometer
mb
20260505100057 2 360 8.0 16.1 0.05 0.05 0.05 89 1012.9
20260505094558 2 360 9.7 19.3 0.05 0.05 0.05 88 1012.9
20260505093058 2 360 12.9 20.9 0.05 0.05 0.05 87 1012.9
20260505091632 2 360 3.2 8.0 0.03 0.03 0.03 85 1013.1
20260505090119 2 360 3.2 6.4 0.00 0.00 0.00 84 1012.9
20260505084613 2 360 1.6 6.4 0.00 0.00 0.00 84 1012.9
20260505083108 2 360 0.0 0.0 0.00 0.00 0.00 84 1012.8
20260505081604 2 0 0.0 3.2 0.00 0.00 0.00 84 1012.9
20260505080105 2 0 1.6 4.8 0.00 0.00 0.00 83 1013.0
20260505074555 3 360 3.2 6.4 0.00 0.00 0.00 84 1013.1
20260505073102 3 360 0.0 3.2 0.00 0.00 0.00 83 1013.1
20260505071613 3 0 0.0 3.2 0.00 0.00 0.00 83 1013.1
20260505070057 3 360 1.6 8.0 0.00 0.00 0.00 84 1013.1
20260505064600 3 360 4.8 8.0 0.00 0.00 0.00 84 1012.9
20260505063100 3 360 6.4 12.9 0.00 0.00 0.00 85 1013.1
20260505061559 3 360 6.4 12.9 0.00 0.00 0.00 84 1013.1
20260505060104 3 360 9.7 14.5 0.00 0.00 0.00 82 1012.9
20260505054601 3 360 9.7 14.5 0.00 0.00 0.00 82 1012.9
20260505053058 3 360 8.0 14.5 0.00 0.00 0.00 81 1013.3
20260505051553 3 360 11.3 20.9 0.00 0.00 0.00 77 1013.3
20260505041603 6 360 16.1 22.5 0.00 0.00 0.00 62 1012.9
20260505040058 6 360 11.3 17.7 0.00 0.00 0.00 58 1012.8
20260505034555 6 360 12.9 20.9 0.00 0.00 0.00 58 1012.7
20260505033056 6 360 17.7 25.7 0.00 0.00 0.00 56 1012.5
20260505031555 6 360 19.3 25.7 0.00 0.00 0.00 55 1012.2
20260505030126 6 360 17.7 24.1 0.00 0.00 0.00 55 1012.0
20260505024559 7 360 16.1 27.4 0.00 0.00 0.00 55 1011.7
20260505023056 7 360 20.9 27.4 0.00 0.00 0.00 54 1011.6
20260505021556 7 360 19.3 30.6 0.00 0.00 0.00 54 1011.2
20260505014611 7 360 20.9 29.0 0.00 0.00 0.00 52 1011.0
20260505013107 8 360 25.7 38.6 0.00 0.00 0.00 52 1010.7
20260505011558 9 360 24.1 35.4 0.00 0.00 0.00 50 1010.5
20260505010116 10 360 25.7 38.6 0.00 0.00 0.00 50 1010.2
20260505004556 11 360 22.5 38.6 0.00 0.00 0.00 47 1009.9
20260505003058 11 360 20.9 37.0 0.00 0.00 0.00 48 1009.8
20260505001557 12 360 22.5 37.0 0.00 0.00 0.00 47 1009.7
20260504234553 12 360 19.3 29.0 0.00 0.00 0.00 46 1009.6
20260504233059 12 360 12.9 27.4 0.00 0.00 0.00 45 1009.6
20260504231555 13 360 16.1 30.6 0.00 0.00 0.00 44 1009.6
20260504230057 13 360 12.9 27.4 0.00 0.00 0.00 44 1009.1
20260504224556 13 360 19.3 30.6 0.00 0.00 0.00 43 1009.2
20260504223120 13 360 12.9 25.7 0.00 0.00 0.00 44 1009.0
20260504221600 13 360 14.5 30.6 0.00 0.00 0.00 43 1009.0
20260504220058 13 360 19.3 32.2 0.00 0.00 0.00 44 1009.1
20260504214557 14 360 17.7 32.2 0.00 0.00 0.00 42 1008.9
20260504213056 13 360 16.1 30.6 0.00 0.00 0.00 43 1009.3
20260504211649 13 360 16.1 27.4 0.00 0.00 0.00 42 1009.6
20260504210058 13 360 12.9 25.7 0.00 0.00 0.00 42 1009.7
20260504204558 13 360 17.7 27.4 0.00 0.00 0.00 44 1009.9
20260504203108 13 360 11.3 20.9 0.00 0.00 0.00 43 1010.1
20260504201611 13 360 8.0 24.1 0.00 0.00 0.00 44 1009.9
20260504200057 13 360 16.1 27.4 0.00 0.00 0.00 43 1010.1
20260504194558 13 360 19.3 25.7 0.00 0.00 0.00 45 1010.3
20260504193107 13 360 8.0 22.5 0.00 0.00 0.00 46 1010.6
20260504191610 12 360 9.7 20.9 0.00 0.00 0.00 44 1011.0
20260504190106 12 360 19.3 37.0 0.00 0.00 0.00 44 1011.0
20260504184556 12 360 14.5 29.0 0.00 0.00 0.00 45 1011.0
20260504183056 11 360 17.7 29.0 0.00 0.00 0.00 46 1011.4
20260504181603 12 360 12.9 29.0 0.00 0.00 0.00 44 1011.4
20260504180057 11 360 17.7 29.0 0.00 0.00 0.00 45 1011.6
20260504174554 11 360 17.7 29.0 0.00 0.00 0.00 46 1011.7
20260504173057 11 360 14.5 29.0 0.00 0.00 0.00 46 1011.8
20260504171556 10 360 19.3 33.8 0.00 0.00 0.00 47 1011.9